Weather History for Pensacola, FL

Change the Weather History Date:

Saturday, November 24, 2012

  Actual Average Record
Temperature  
Mean Temperature 52 °F 58 °F  
Max Temperature 63 °F 68 °F 83 °F (1978)
Min Temperature 41 °F 49 °F 26 °F (1970)
Degree Days  
Heating Degree Days 13 8  
Month to date heating degree days 127 122  
Since 1 July heating degree days 156 160  
Cooling Degree Days 0 1  
Month to date cooling degree days 25 40  
Year to date cooling degree days 3029 2590  
Growing Degree Days 3 (Base 50)    
Moisture  
Dew Point 33 °F    
Average Humidity 57    
Maximum Humidity 86    
Minimum Humidity 27    
Precipitation  
Precipitation 0.00 in 0.15 in 3.74 in (2000)
Month to date precipitation 0.34 3.79  
Year to date precipitation 63.65 59.78  
Snow  
Snow 0.00 in 0.00 in 0.00 in (2002)
Month to date snowfall 0.0 0.0  
Since 1 July snowfall 0.0 0.0  
Snow Depth 0.00 in    
Sea Level Pressure  
Sea Level Pressure 30.19 in    
Wind  
Wind Speed 9 mph (NNW)    
Max Wind Speed 17 mph    
Max Gust Speed 22 mph    
Visibility 10 miles    
Events      
T = Trace of Precipitation, MM = Missing Value Source: NWS Daily Summary

Daily Weather History Graph

Daily Weather History Graph

Search for Another Location

Airport:

Trip Planner

Search our weather history database for the weather conditions in past years. The results will help you decide how hot, cold, wet, or windy it might be!

Date:

Astronomy

Nov. 24, 2012 Rise Set
Actual Time 6:22 AM CST 4:48 PM CST
Civil Twilight 5:56 AM CST 5:14 PM CST
Nautical Twilight 5:27 AM CST 5:43 PM CST
Astronomical Twilight 4:58 AM CST 6:12 PM CST
Moon 2:22 PM CST (11/24) 2:51 AM CST (11/24)
Length of Visible Light 11h 17m
Length of Day
10h 25m
Waxing Gibbous, 87% of the Moon is Illuminated
Nov 24
Waxing Gibbous
Nov 28
Full
Dec 6
Last Quarter
Dec 13
New
Dec 19
First Quarter

Hourly Weather History & Observations

Time (CST) Temp. Windchill Dew Point Humidity Pressure Visibility Wind Dir Wind Speed Gust Speed Precip Events Conditions
12:53 AM 57.9 °F - 53.1 °F 84% 30.16 in 10.0 mi NNW 11.5 mph - N/A   Clear
1:53 AM 57.0 °F - 48.0 °F 72% 30.16 in 10.0 mi NNW 12.7 mph - N/A   Clear
2:53 AM 54.0 °F - 42.1 °F 64% 30.17 in 10.0 mi North 13.8 mph - N/A   Clear
3:53 AM 52.0 °F - 39.0 °F 61% 30.17 in 10.0 mi North 9.2 mph - N/A   Clear
4:53 AM 50.0 °F - 37.9 °F 63% 30.19 in 10.0 mi North 11.5 mph - N/A   Clear
5:53 AM 48.0 °F - 37.0 °F 66% 30.22 in 10.0 mi North 9.2 mph - N/A   Clear
6:53 AM 46.9 °F - 36.0 °F 66% 30.24 in 10.0 mi North 11.5 mph - N/A   Clear
7:53 AM 48.0 °F - 35.1 °F 61% 30.25 in 10.0 mi North 9.2 mph - N/A   Clear
8:53 AM 51.1 °F - 36.0 °F 56% 30.25 in 10.0 mi North 9.2 mph - N/A   Clear
9:53 AM 55.0 °F - 33.1 °F 43% 30.26 in 10.0 mi North 10.4 mph - N/A   Clear
10:53 AM 57.9 °F - 32.0 °F 37% 30.23 in 10.0 mi North 10.4 mph - N/A   Clear
11:53 AM 59.0 °F - 30.0 °F 33% 30.20 in 10.0 mi NNW 13.8 mph - N/A   Clear
12:53 PM 61.0 °F - 28.9 °F 30% 30.17 in 10.0 mi NNW 10.4 mph - N/A   Clear
1:53 PM 62.1 °F - 28.9 °F 29% 30.16 in 10.0 mi NNW 9.2 mph - N/A   Clear
2:53 PM 62.1 °F - 28.9 °F 29% 30.15 in 10.0 mi North 11.5 mph - N/A   Clear
3:53 PM 60.1 °F - 27.0 °F 28% 30.15 in 10.0 mi North 10.4 mph - N/A   Clear
4:53 PM 55.9 °F - 28.0 °F 34% 30.17 in 10.0 mi North 5.8 mph - N/A   Clear
5:53 PM 53.1 °F - 28.0 °F 38% 30.18 in 10.0 mi North 6.9 mph - N/A   Clear
6:53 PM 50.0 °F - 28.0 °F 43% 30.19 in 10.0 mi NNW 5.8 mph - N/A   Clear
7:53 PM 46.9 °F - 30.0 °F 52% 30.19 in 10.0 mi North 5.8 mph - N/A   Clear
8:53 PM 44.1 °F 40.8 °F 30.0 °F 58% 30.19 in 10.0 mi NNW 5.8 mph - N/A   Clear
9:53 PM 46.0 °F 43.1 °F 27.0 °F 47% 30.19 in 10.0 mi North 5.8 mph - N/A   Clear
10:53 PM 45.0 °F 41.8 °F 27.0 °F 49% 30.18 in 10.0 mi North 5.8 mph - N/A   Clear
11:53 PM 41.0 °F 39.0 °F 27.0 °F 57% 30.18 in 10.0 mi North 3.5 mph - N/A   Clear